STARLINK-32532, 62156

Orbit data source: Space-Track

STARLINK-32532, 62156 is a payload satellite owned by SpaceX/Seattle (US) in LEO that was launched on Sat, 30 Nov 2024 UTC via an FALCON 9 launch vehicle from the Air Force Eastern Test Range (AFETR). Payload-class satellites include a variety of spacecraft equipped with specific instruments for various scientific and technological missions. These include communications satellites like Starlink; space stations such as the ISS; scientific satellites like the Hubble; Earth observation satellites from companies like Planet Labs, Umbra, and HawkEye 360; GPS; miniature CubeSats for education and research; and military/defense satellites.

Loading next visibility...
Identifier
62156, 2024-224T
Orbit
LEO
Country
Flag of USUS
Related business
Manufacturer
SpaceX/Seattle
Mission
Operational Commercial Communications
Bus & Motor
STARLINK V2M, Unknown motor
Mass
730 kg wet, ~700 kg dry
Launch date (UTC)
2024-11-30 (1 year ago)
Launch vehicle
FALCON 9
Launch site
Air Force Eastern Test Range (AFETR)
Object type
Payload
Rocket body
Debris
Shape & HBR
Box + 2 Pan, 17.7 m
Radar Cross Section
33.884 m², Large (>1 m²)

Expand to show TLE details & history
Last TLE update: 19 hours ago

TLE from 19 hours ago
0 STARLINK-32532
1 62156U 24224T   25348.83112694  .00025901  00000-0  94701-3 0  9991
2 62156  43.0011 277.1973 0001559 261.7525  98.3150 15.27594796 59347
Epoch: 2025-12-14T19:56Z
TLE epoch observation values (Epoch: 2025-12-14T19:56:49.367Z)
Latitude
-0.00002°
Longitude
-105.74682°
Altitude
482.935 km
Speed
7.626 km/s
True Right ascension
18h 28m 47s
True Declination
0° 00' 00"
Sunlit
Object was in daylight at epoch
Visualization orbit readout
Latitude
Unknown
Longitude
Unknown
Altitude
Unknown
Speed
Unknown
Apparent Right ascension
Unknown
Apparent Declination
Unknown
Sunlit
N/A
Visualization observer readout
Local Sidereal Time
13:19:02
Azimuth
Unknown
Elevation
Unknown
Doppler factor
Unknown
Orbital elements
Apogee altitude
486.02 km
Perigee altitude
483.88 km
Semi-major axis
6,863.087 km
Eccentricity
0.00016
Inclination
43.0011°
RAAN
277.1973°
Arg. of periapsis
261.7525°
True anomaly
98.33268°
Mean anomaly
98.315°
Eccentric anomaly
98.32384°
Mean motion
3.81737 °/min
Orbital period
94.31 mins
BSTAR
0.00094701
Loading maneuver chart data...
Computing Atmospheric mass density...
Loading historical data...
Loading historical data...
Loading historical data...
Loading historical data...
Loading historical data...
Loading historical data...
Loading historical data...

Documentation

Showing up to 5 results
|